Other Public Products
Issued by NWS Grand Forks, ND

Home | Current Version | Previous Version | Graphics & Text | Print | Product List | Glossary On
Versions: 1 2 3 4 5 6 7 8 9 10 11 12 13 14 15 16 17 18 19 20 21 22 23 24 25 26 27 28 29 30 31 32 33 34 35 36 37 38 39 40 41 42 43 44 45 46 47 48 49 50
000
FPUS83 KFGF 241831
OPUFGF
PRAIRIE TO PINES WEATHER ROUNDUP
NATIONAL WEATHER SERVICE EASTERN NORTH DAKOTA/GRAND FORKS ND
100 PM CDT WED MAY 24 2017

 **SATELLITE DATA USED TO AUGMENT SKY COVER AT AUTOMATED STATIONS**
 *****  WEATHER ACROSS EASTERN NORTH DAKOTA  *****

CITY           SKY/WX    TMP DP  RH WIND       PRES   REMARKS
GRAND FORKS    FAIR      67  41  38 SE20G30   29.71F
6HR MIN TEMP:  44; 6HR MAX TEMP:  67;

GRAND FORKS AF FAIR      65  41  42 S14G25    29.71F
GRAND CITY NWS NOT AVBL
BUXTON           N/A     64  41  43 SE17        N/A
DEVILS LAKE    FAIR      61  42  49 SE21G30   29.67F
6HR MIN TEMP:  46; 6HR MAX TEMP:  62;

FARGO          PTSUNNY   63  43  48 S14G20    29.72F
6HR MIN TEMP:  43; 6HR MAX TEMP:  64;

WAHPETON ARPT  CLOUDY    59  43  55 S13       29.74F
$$

 *****  WEATHER ACROSS CENTRAL AND WESTERN NORTH DAKOTA  *****

CITY           SKY/WX    TMP DP  RH WIND       PRES   REMARKS
JAMESTOWN      PTSUNNY   59  42  53 SE17      29.69F
6HR MIN TEMP:  39; 6HR MAX TEMP:  62;

BISMARCK       FAIR      65  40  39 S21G31    29.61F
6HR MIN TEMP:  37; 6HR MAX TEMP:  65;

MINOT          FAIR      68  35  29 SE21G31   29.54F
6HR MIN TEMP:  52; 6HR MAX TEMP:  68;

MINOT AFB      FAIR      67  36  31 SE30G38   29.52F
6HR MIN TEMP:  51; 6HR MAX TEMP:  67;

GARRISON         N/A     64  37  36 S23       29.56F
6HR MIN TEMP:  46; 6HR MAX TEMP:  65;

WILLISTON      FAIR      71  37  28 SE25G37   29.42F
6HR MIN TEMP:  53; 6HR MAX TEMP:  71;

DICKINSON      FAIR      66  32  28 S32G39    29.48F
6HR MIN TEMP:  44; 6HR MAX TEMP:  66;

HETTINGER      FAIR      66  36  32 S22G30    29.56F
6HR MIN TEMP:  42; 6HR MAX TEMP:  66;

$$

 *****  OTHER OBSERVATIONS NORTHEAST NORTH DAKOTA  *****

CITY           SKY/WX    TMP DP  RH WIND       PRES   REMARKS
WALHALLA       NOT AVBL
LANGDON        FAIR      64  43  45 S22G33    29.68F
CAVALIER       FAIR      64  41  42 S15G28    29.68F
GRAFTON        FAIR      66  41  39 S22G30    29.71F
CANDO          NOT AVBL
FORT TOTTEN      N/A     61  42  50 SE14      29.95S
ROLLA          FAIR      63  36  36 SE30G36   29.62F
RUGBY          NOT AVBL
 ***** THE ABOVE OBSERVATIONS ARE NON NWS ARE NOT QUALITY
        CONTROLLED AND MAY MIS-REPORT RAIN FOR SNOW...
$$

 *****  OTHER OBSERVATIONS SOUTHEAST NORTH DAKOTA *****

CITY           SKY/WX    TMP DP  RH WIND       PRES   REMARKS
COOPERSTOWN    MOCLDY    63  41  45 SE20G29   29.69F
VALLEY CITY    CLOUDY    61  43  51 S18       29.72F
OAKES          NOT AVBL
GWINNER        CLOUDY    61  41  48 MISG      29.72F
SHEYENNE NWR     N/A     61  42  50 SE10      29.95S
BUFFALO          N/A     61  36  39 S15         N/A
WYNDMERE         N/A     61  45  55 SE12        N/A
 ***** THE ABOVE OBSERVATIONS ARE NON NWS ARE NOT QUALITY
       CONTROLLED AND MAY MIS-REPORT RAIN FOR SNOW...
$$

  *****  WEATHER ACROSS NORTHERN MINNESOTA  *****

CITY           SKY/WX    TMP DP  RH WIND       PRES   REMARKS
FLAG ISLAND    FAIR      57  45  62 S5        29.76F
WARROAD        FAIR      61  48  63 NE7       29.75F
ROSEAU         FAIR      66  43  42 SE12G21   29.73F
HALLOCK        FAIR      68  36  30 SE18G32   29.70F
THF RVR FALLS  FAIR      62  41  46 SE10G23   29.75F
6HR MIN TEMP:  43; 6HR MAX TEMP:  63;

HALSTAD          N/A     66  43  43 S20         N/A
FOSSTON        FAIR      63  45  51 SE12G17   29.75F
BAUDETTE       FAIR      65  39  38 E10       29.76F
6HR MIN TEMP:  39; 6HR MAX TEMP:  66;

WASKISH        PTSUNNY   64  39  39 E14       29.76F
CROOKSTON      FAIR      64  41  42 SE20      29.72F
$$
  *****  WEATHER ACROSS CENTRAL AND WEST MINNESOTA  *****

CITY           SKY/WX    TMP DP  RH WIND       PRES   REMARKS
BEMIDJI        FAIR      62  40  43 SE14      29.77S
PARK RAPIDS    PTSUNNY   62  37  39 SE13G21   29.76F
6HR MIN TEMP:  46; 6HR MAX TEMP:  64;

WADENA         CLOUDY    61  41  48 E13G18    29.75F
DETROIT LAKES  PTSUNNY   57  41  54 SE9       29.76F
MOORHEAD       PTSUNNY   63  43  48 S13G18    29.73F
FERGUS FALLS   PTSUNNY   59  43  55 SE12      29.73F
ELBOW LAKE     CLOUDY    58  43  56 SE8       29.75F
6HR MIN TEMP:  47; 6HR MAX TEMP:  58;

MORRIS MN      PTSUNNY   61  45  55 SE9       29.74F
STAPLES        CLOUDY    57  39  51 E10G18    29.76S
WHEATON        CLOUDY    59  43  55 SE8       29.76F
$$
  *****  WEATHER ELSEWHERE ACROSS MINNESOTA  *****

CITY           SKY/WX    TMP DP  RH WIND       PRES   REMARKS
DULUTH         FAIR      57  43  59 E16G25    29.78F
6HR MIN TEMP:  47; 6HR MAX TEMP:  57;

INTRNTL FALLS  FAIR      63  36  36 VRB6      29.78F
6HR MIN TEMP:  40; 6HR MAX TEMP:  63;

ELY            CLOUDY    61  37  41 E7        29.78F
CLOQUET        FAIR      55  41  58 E13G21    29.78F
BRAINERD       CLOUDY    55  42  61 SE5       29.78S
6HR MIN TEMP:  48; 6HR MAX TEMP:  57;

HIBBING        CLOUDY    58  41  53 E5        29.78F
6HR MIN TEMP:  44; 6HR MAX TEMP:  58;

ALEXANDRIA     CLOUDY    58  42  55 E10G17    29.77S
6HR MIN TEMP:  49; 6HR MAX TEMP:  58;

SAINT CLOUD    CLOUDY    56  44  64 E6        29.75F
6HR MIN TEMP:  48; 6HR MAX TEMP:  56;

MINNEAPOLIS    CLOUDY    59  44  57 NE6       29.74S
6HR MIN TEMP:  48; 6HR MAX TEMP:  59;

$$

  *****  WEATHER ACROSS SOUTH DAKOTA  *****

CITY           SKY/WX    TMP DP  RH WIND       PRES   REMARKS
SIOUX FALLS    PTSUNNY   59  46  62 CALM      29.74F
6HR MIN TEMP:  45; 6HR MAX TEMP:  61;

BROOKINGS      CLOUDY    56  44  64 SE5       29.74F
WATERTOWN      CLOUDY    57  44  62 SE8       29.72F
6HR MIN TEMP:  43; 6HR MAX TEMP:  57;

HURON          PTSUNNY   62  46  55 SE12      29.72F
6HR MIN TEMP:  37; 6HR MAX TEMP:  62;

SISSETON         N/A     58  45  62 S8        29.73F
ABERDEEN       PTSUNNY   62  40  44 SE10      29.71F
6HR MIN TEMP:  39; 6HR MAX TEMP:  62;

MITCHELL       PTSUNNY   62  45  53 S7        29.73F
PIERRE         FAIR      62  41  46 S12G24    29.66F
6HR MIN TEMP:  35; 6HR MAX TEMP:  63;

MOBRIDGE       FAIR      62  40  44 S17G25    29.64F
RAPID CITY     FAIR      68  42  38 S22G30    29.57F
6HR MIN TEMP:  38; 6HR MAX TEMP:  68;

$$

  *****  SOME WEATHER IN NEARBY STATES *****

CITY           SKY/WX    TMP DP  RH WIND       PRES   REMARKS
GLASGOW MT     FAIR      81  41  24 W24G31    29.24F
6HR MIN TEMP:  55; 6HR MAX TEMP:  84;

GREAT FALLS MT FAIR      64  21  19 SW31G44   29.44S
6HR MIN TEMP:  61; 6HR MAX TEMP:  65;

CHEYENNE WY    FAIR      73  32  22 W25G37    29.74F
6HR MIN TEMP:  42; 6HR MAX TEMP:  73;

SCOTTSBLUFF NE FAIR      72  45  37 SE6       29.64F
6HR MIN TEMP:  38; 6HR MAX TEMP:  72;

OMAHA NE       FAIR      64  46  52 NW12G21   29.72F
6HR MIN TEMP:  51; 6HR MAX TEMP:  64;

DES MOINES IA  CLOUDY    58  50  75 N10       29.69S
6HR MIN TEMP:  53; 6HR MAX TEMP:  58; 6HR PCP: TRACE;

DAVENPORT IA   CLOUDY    58  50  75 N10       29.62S
6HR MIN TEMP:  51; 6HR MAX TEMP:  60;

CHICAGO IL     CLOUDY    59  50  72 NE17      29.56S
6HR MIN TEMP:  54; 6HR MAX TEMP:  59; 6HR PCP: TRACE;

EAU CLAIRE WI  CLOUDY    60  46  59 NE12      29.71F
6HR MIN TEMP:  48; 6HR MAX TEMP:  60;

LA CROSSE WI   CLOUDY    58  49  72 N8        29.69F
6HR MIN TEMP:  53; 6HR MAX TEMP:  58;

$$

  *****  SOME NATIONAL WEATHER *****

CITY           SKY/WX    TMP DP  RH WIND       PRES   REMARKS
LA GUARDIA NY  PTSUNNY   67  51  56 NE13G23   29.75F



USA.gov is the U.S. government's official web portal to all federal, state and local government web resources and services.